When you browse on this site, cookies collect data to enhance your experience and personalize the content and advertising you see.
Visit our Privacy Policy to learn more. By continuing to use the site, you agree to this use of cookies and data.
  • In Hungary
  • List of Countries
  • For 7 days
  • Water Temperature
  • Satellite Maps
  • Weather Map
  • News
  • Weather Widgets
  • user-avatar
    Login

    Hourly Weather Strzelno

    Today, 16 January, Wednesday

    Time Temperature Precipitation Wind Pressure Humidity
    00:00 +4°C° 0.2 mm 7 mps 748 mmHg 89%
    01:00 +3°C° 0 mm 5 mps 748 mmHg 91%
    02:00 +3°C° 0.8 mm 5 mps 748 mmHg 92%
    03:00 +3°C° 0.8 mm 5 mps 748 mmHg 93%
    04:00 +4°C° 0.8 mm 4 mps 748 mmHg 94%
    05:00 +5°C° 0.2 mm 5 mps 748 mmHg 91%
    06:00 +4°C° 0.2 mm 6 mps 749 mmHg 88%
    07:00 +5°C° 0.2 mm 7 mps 749 mmHg 84%
    08:00 +5°C° 0 mm 7 mps 749 mmHg 84%
    09:00 +4°C° 0 mm 6 mps 749 mmHg 83%
    10:00 +4°C° 0 mm 6 mps 749 mmHg 83%
    11:00 +4°C° 0 mm 6 mps 749 mmHg 83%
    12:00 +5°C° 0 mm 6 mps 749 mmHg 83%
    13:00 +5°C° 0 mm 6 mps 749 mmHg 84%
    14:00 +5°C° 0 mm 6 mps 749 mmHg 84%
    15:00 +4°C° 0 mm 6 mps 748 mmHg 84%
    16:00 +4°C° 0 mm 6 mps 748 mmHg 85%
    17:00 +4°C° 0 mm 6 mps 748 mmHg 84%
    18:00 +4°C° 0 mm 6 mps 747 mmHg 84%
    19:00 +4°C° 0 mm 6 mps 747 mmHg 83%
    20:00 +3°C° 0 mm 6 mps 746 mmHg 83%
    21:00 +3°C° 0 mm 6 mps 746 mmHg 82%
    22:00 +3°C° 0 mm 6 mps 746 mmHg 82%
    23:00 +3°C° 0.1 mm 6 mps 745 mmHg 81%

    Tomorrow, 17 January, Thursday

    Time Temperature Precipitation Wind Pressure Humidity
    00:00 +2°C° 0.1 mm 6 mps 744 mmHg 81%
    01:00 +2°C° 0.1 mm 7 mps 744 mmHg 80%
    02:00 +2°C° 0.1 mm 7 mps 743 mmHg 78%
    03:00 +2°C° 0.1 mm 7 mps 743 mmHg 76%
    04:00 +2°C° 0.1 mm 7 mps 742 mmHg 74%
    05:00 +1°C° 0.2 mm 8 mps 742 mmHg 76%
    06:00 +2°C° 0.2 mm 8 mps 742 mmHg 78%
    07:00 +2°C° 0.2 mm 8 mps 742 mmHg 79%
    08:00 +2°C° 0 mm 8 mps 743 mmHg 78%
    09:00 +2°C° 0 mm 8 mps 743 mmHg 77%
    10:00 +2°C° 0 mm 8 mps 743 mmHg 75%
    11:00 +2°C° 0 mm 8 mps 743 mmHg 73%
    12:00 +4°C° 0 mm 8 mps 743 mmHg 70%
    13:00 +4°C° 0 mm 8 mps 743 mmHg 67%
    14:00 +4°C° 0.1 mm 8 mps 742 mmHg 69%
    15:00 +3°C° 0.1 mm 7 mps 742 mmHg 71%
    16:00 +3°C° 0.1 mm 6 mps 742 mmHg 73%
    17:00 +2°C° 0.2 mm 7 mps 742 mmHg 72%
    18:00 +2°C° 0.2 mm 7 mps 742 mmHg 71%
    19:00 0°C° 0.2 mm 8 mps 743 mmHg 71%
    20:00 -1°C° 0 mm 8 mps 743 mmHg 69%
    21:00 -1°C° 0 mm 8 mps 744 mmHg 68%
    22:00 -2°C° 0 mm 7 mps 744 mmHg 66%
    23:00 -2°C° 0 mm 7 mps 745 mmHg 69%

    Day after tomorrow, 18 January, Friday

    Time Temperature Precipitation Wind Pressure Humidity
    00:00 -2°C° 0 mm 6 mps 745 mmHg 72%
    01:00 -2°C° 0 mm 5 mps 745 mmHg 75%
    02:00 -3°C° 0.1 mm 6 mps 746 mmHg 77%
    03:00 -3°C° 0.1 mm 6 mps 747 mmHg 79%
    04:00 -3°C° 0.1 mm 7 mps 747 mmHg 82%
    05:00 -3°C° 0.1 mm 6 mps 749 mmHg 83%
    06:00 -3°C° 0.1 mm 6 mps 750 mmHg 84%
    07:00 -3°C° 0.1 mm 6 mps 751 mmHg 86%
    08:00 -3°C° 0.1 mm 6 mps 752 mmHg 80%
    09:00 -2°C° 0.1 mm 5 mps 754 mmHg 75%
    10:00 -2°C° 0.1 mm 5 mps 755 mmHg 70%
    11:00 -1°C° 0 mm 5 mps 755 mmHg 67%
    12:00 -1°C° 0 mm 5 mps 756 mmHg 65%
    13:00 0°C° 0 mm 5 mps 757 mmHg 63%
    14:00 -1°C° 0 mm 4 mps 757 mmHg 67%
    15:00 -1°C° 0 mm 4 mps 758 mmHg 72%
    16:00 -1°C° 0 mm 3 mps 758 mmHg 77%
    17:00 -1°C° 0 mm 3 mps 758 mmHg 80%
    18:00 -2°C° 0 mm 3 mps 758 mmHg 83%
    19:00 -2°C° 0 mm 3 mps 759 mmHg 86%
    20:00 -2°C° 0 mm 3 mps 759 mmHg 85%
    21:00 -2°C° 0 mm 3 mps 759 mmHg 83%
    22:00 -2°C° 0 mm 3 mps 759 mmHg 81%
    23:00 -2°C° 0 mm 3 mps 759 mmHg 81%

    19 January, Saturday

    Time Temperature Precipitation Wind Pressure Humidity
    00:00 -2°C° 0 mm 3 mps 759 mmHg 81%
    01:00 -2°C° 0 mm 3 mps 759 mmHg 81%
    02:00 -2°C° 0 mm 3 mps 759 mmHg 83%
    03:00 -2°C° 0 mm 3 mps 759 mmHg 85%
    04:00 -2°C° 0 mm 3 mps 759 mmHg 87%
    05:00 -2°C° 0 mm 3 mps 759 mmHg 88%
    06:00 -2°C° 0 mm 2 mps 759 mmHg 89%
    07:00 -2°C° 0 mm 2 mps 759 mmHg 90%
    08:00 -2°C° 0 mm 2 mps 760 mmHg 88%
    09:00 -1°C° 0 mm 2 mps 760 mmHg 85%
    10:00 -1°C° 0 mm 2 mps 760 mmHg 83%
    11:00 +1°C° 0 mm 2 mps 760 mmHg 79%
    12:00 +1°C° 0 mm 2 mps 760 mmHg 75%
    13:00 +2°C° 0 mm 2 mps 760 mmHg 72%
    14:00 +2°C° 0 mm 2 mps 759 mmHg 75%
    15:00 +2°C° 0 mm 1 mps 759 mmHg 78%
    16:00 +1°C° 0 mm 1 mps 759 mmHg 81%
    17:00 +1°C° 0 mm 1 mps 759 mmHg 82%
    18:00 0°C° 0 mm 1 mps 759 mmHg 82%
    19:00 0°C° 0 mm 1 mps 759 mmHg 83%
    20:00 0°C° 0 mm 1 mps 760 mmHg 83%
    21:00 0°C° 0 mm 1 mps 760 mmHg 82%
    22:00 0°C° 0 mm 1 mps 760 mmHg 81%
    23:00 0°C° 0 mm 1 mps 760 mmHg 81%

    20 January, Sunday

    Time Temperature Precipitation Wind Pressure Humidity
    00:00 0°C° 0 mm 1 mps 760 mmHg 80%
    01:00 0°C° 0 mm 1 mps 760 mmHg 80%
    02:00 -1°C° 0 mm 1 mps 760 mmHg 79%
    03:00 -1°C° 0 mm 1 mps 760 mmHg 79%
    04:00 -1°C° 0 mm 1 mps 760 mmHg 79%
    05:00 -1°C° 0 mm 1 mps 760 mmHg 79%
    06:00 -1°C° 0 mm 1 mps 760 mmHg 80%
    07:00 -1°C° 0 mm 1 mps 760 mmHg 80%
    08:00 -1°C° 0 mm 1 mps 760 mmHg 77%
    09:00 0°C° 0 mm 1 mps 761 mmHg 75%
    10:00 -2°C° 0 mm 2 mps 761 mmHg 73%
    11:00 -1°C° 0 mm 2 mps 761 mmHg 72%
    12:00 0°C° 0 mm 3 mps 761 mmHg 72%
    13:00 +1°C° 0 mm 3 mps 761 mmHg 72%
    14:00 0°C° 0 mm 3 mps 761 mmHg 77%
    15:00 -1°C° 0 mm 3 mps 762 mmHg 82%
    16:00 -1°C° 0 mm 2 mps 762 mmHg 86%
    17:00 -2°C° 0 mm 2 mps 762 mmHg 85%
    18:00 -3°C° 0 mm 2 mps 763 mmHg 85%
    19:00 -3°C° 0 mm 2 mps 763 mmHg 84%
    20:00 -3°C° 0 mm 2 mps 764 mmHg 82%
    21:00 -4°C° 0 mm 2 mps 764 mmHg 80%
    22:00 -4°C° 0 mm 2 mps 765 mmHg 78%
    23:00 -4°C° 0 mm 2 mps 765 mmHg 76%

    21 January, Monday

    Time Temperature Precipitation Wind Pressure Humidity
    00:00 -4°C° 0 mm 2 mps 766 mmHg 74%
    01:00 -2°C° 0 mm 1 mps 766 mmHg 73%
    02:00 -2°C° 0 mm 1 mps 766 mmHg 72%
    03:00 -2°C° 0 mm 1 mps 767 mmHg 72%
    04:00 -2°C° 0 mm 1 mps 767 mmHg 72%
    05:00 -2°C° 0 mm 1 mps 767 mmHg 72%
    06:00 -2°C° 0 mm 1 mps 767 mmHg 72%
    07:00 -2°C° 0 mm 1 mps 768 mmHg 73%
    08:00 -2°C° 0 mm 1 mps 768 mmHg 70%
    09:00 -1°C° 0 mm 1 mps 768 mmHg 68%
    10:00 -1°C° 0 mm 1 mps 769 mmHg 65%
    11:00 0°C° 0 mm 1 mps 769 mmHg 62%
    12:00 0°C° 0 mm 1 mps 769 mmHg 59%
    13:00 +1°C° 0 mm 1 mps 769 mmHg 56%
    14:00 +1°C° 0 mm 1 mps 769 mmHg 59%
    15:00 0°C° 0 mm 1 mps 769 mmHg 63%
    16:00 -1°C° 0 mm 1 mps 768 mmHg 66%
    17:00 -1°C° 0 mm 1 mps 768 mmHg 68%
    18:00 -1°C° 0 mm 1 mps 768 mmHg 70%
    19:00 -2°C° 0 mm 1 mps 768 mmHg 71%
    20:00 -4°C° 0 mm 2 mps 768 mmHg 72%
    21:00 -4°C° 0 mm 2 mps 768 mmHg 72%
    22:00 -4°C° 0 mm 2 mps 768 mmHg 73%
    23:00 -5°C° 0 mm 2 mps 767 mmHg 73%
    Show more